This is the latest recevied weather packets stored in our database for station/object KA1JKB. If no packets are shown the sender has not sent any weather packets the latest 10 day(s).
| Time | Temp. | Humidity | Pressure | Rain* | Wind** | Luminosity | Snow |
|---|---|---|---|---|---|---|---|
| 1777503464 | 8.89° C | 98% | 1008.1 hPa | 0 mm | - | 34 W/m² | - |
| 1777503159 | 9.44° C | 98% | 1008.1 hPa | 0 mm | - | 51 W/m² | - |
| 1777502857 | 9.44° C | 98% | 1008.2 hPa | 0 mm | - | 54 W/m² | - |
| 1777502554 | 9.44° C | 98% | 1008.2 hPa | 0 mm | - | 53 W/m² | - |
| 1777502252 | 9.44° C | 98% | 1008.2 hPa | 0 mm | - | 47 W/m² | - |
| 1777501948 | 9.44° C | 97% | 1008.3 hPa | 0 mm | - | 47 W/m² | - |
| 1777501646 | 9.44° C | 97% | 1008.2 hPa | 0 mm | - | 24 W/m² | - |
| 1777501342 | 9.44° C | 96% | 1008.4 hPa | 0 mm | - | 30 W/m² | - |
| 1777501040 | 9.44° C | 96% | 1008.3 hPa | 0 mm | - | 46 W/m² | - |
| 1777500738 | 9.44° C | 96% | 1008 hPa | 0 mm | - | 66 W/m² | - |
| 1777500435 | 9.44° C | 95% | 1008.3 hPa | 1.27 mm | - | 66 W/m² | - |
| 1777500130 | 9.44° C | 96% | 1008.2 hPa | 1.27 mm | - | 39 W/m² | - |
| 1777499828 | 9.44° C | 96% | 1008.1 hPa | 0 mm | - | 22 W/m² | - |
| 1777499523 | 9.44° C | 96% | 1008.1 hPa | 0 mm | - | 29 W/m² | - |
| 1777499222 | 9.44° C | 96% | 1008.3 hPa | 0 mm | - | 39 W/m² | - |
| 1777498918 | 9.44° C | 96% | 1008 hPa | 0 mm | - | 62 W/m² | - |
| 1777498615 | 9.44° C | 96% | 1008 hPa | 0 mm | - | 74 W/m² | - |
| 1777498311 | 9.44° C | 95% | 1008.1 hPa | 0 mm | - | 85 W/m² | - |
| 1777498009 | 9.44° C | 95% | 1007.9 hPa | 0 mm | - | 98 W/m² | - |
| 1777497706 | 9.44° C | 95% | 1008 hPa | 1.78 mm | - | 75 W/m² | - |
| 1777497402 | 9.44° C | 94% | 1008.2 hPa | 1.78 mm | - | 47 W/m² | - |
| 1777497098 | 9.44° C | 93% | 1008.1 hPa | 0 mm | - | 33 W/m² | - |
| 1777496795 | 9.44° C | 91% | 1008 hPa | 0 mm | - | 32 W/m² | - |
| 1777496492 | 10° C | 90% | 1008.2 hPa | 0 mm | - | 48 W/m² | - |
| 1777496188 | 10° C | 89% | 1008.1 hPa | 0 mm | - | 63 W/m² | - |
* Rain latest hour (hover to see other rain measurements)
** Current wind speed in m/s (hover to see current wind gust speed)